Location: Azul
(36.7830°S, 59.8500°W)
Time: 00:49:31
(UTC-03:00)

DELFI C3 - Pass Details

Date: 23 October 2021
Orbit: 529 x 543 km, 97.4° (Epoch: 30 November)

Event Time Altitude Azimuth Distance (km) Brightness Sun altitude
Rises 19:58:34 0° 149° (SSE) 2,735 ? -7.5°
Reaches altitude 10° 20:01:20 10° 129° (SE) 1,829 ? -8.0°
Maximum altitude 20:03:58 17° 87° (E) 1,421 ? -8.5°
Drops below altitude 10° 20:06:34 10° 45° (NE) 1,803 ? -9.0°
Enters shadow 20:06:47 - 42° (NE) 1,860 ? -9.0°
